Location: Cuiabá
(15.6014°S, 56.0979°W)
Time: 16:00:18
(UTC-04:00)

Envisat - Pass Details

Date: 03 December 2022
Orbit: 763 x 765 km, 98.2° (Epoch: 05 February)

Event Time Altitude Azimuth Distance (km) Brightness Sun altitude
Exits shadow 04:00:23 12° 341° (NNW) 2,142 4.9 -14.7°
Maximum altitude 04:04:29 34° 280° (W) 1,255 3.6 -13.8°
Drops below altitude 10° 04:09:04 10° 216° (SW) 2,310 5.4 -12.9°
Sets 04:11:35 0° 206° (SSW) 3,241 6.3 -12.3°
